Change the Weather History Date:

Thursday, December 6, 2012

  Actual Average (KSNY) Record (KSNY)
Temperature  
Mean Temperature 37 °F 30 °F  
Max Temperature 50 °F 42 °F 66 °F (1988)
Min Temperature 26 °F 17 °F -22 °F (1972)
Degree Days  
Heating Degree Days 28 35  
Month to date heating degree days 208  
Since 1 July heating degree days 1630  
Cooling Degree Days 0 0  
Month to date cooling degree days 0  
Year to date cooling degree days 830  
Moisture  
Dew Point 25 °F    
Average Humidity 61    
Maximum Humidity 81    
Minimum Humidity 44    
Precipitation  
Precipitation 0.00 in 0.02 in 0.33 in (1951)
Month to date precipitation 0.12  
Year to date precipitation 18.12  
Sea Level Pressure  
Sea Level Pressure 29.94 in    
Wind  
Wind Speed 11 mph (ESE)    
Max Wind Speed 22 mph    
Max Gust Speed 29 mph    
Visibility 10 miles    
Events      
T = Trace of Precipitation, MM = Missing Value Source: NWS Daily Summary

Daily Weather History Graph

Daily Weather History Graph

Search for Another Location

Airport or City:

Trip Planner

Search our weather history database for the weather conditions in past years. The results will help you decide how hot, cold, wet, or windy it might be!

Date:

Astronomy

Dec. 06, 2012 Rise Set
Actual Time 8:06 AM CST 5:25 PM CST
Civil Twilight 7:35 AM CST 5:56 PM CST
Nautical Twilight 7:00 AM CST 6:31 PM CST
Astronomical Twilight 6:27 AM CST 7:04 PM CST
Moon 12:20 AM CST (12/6) 12:56 PM CST (12/6)
Length of Visible Light 10h 21m
Length of Day
9h 19m
Waning Gibbous, 49% of the Moon is Illuminated
Dec 6
Waning Gibbous
Dec 13
New
Dec 19
First Quarter
Dec 28
Full
Jan 4
Last Quarter

Hourly Weather History & Observations

Time (CST) Temp. Windchill Dew Point Humidity Pressure Visibility Wind Dir Wind Speed Gust Speed Precip Events Conditions
12:15 AM 41.0 °F 37.1 °F 23.7 °F 50% 29.88 in 10.0 mi NW 5.8 mph - N/A   Clear
12:35 AM 43.7 °F 40.3 °F 24.8 °F 47% 29.89 in 10.0 mi WNW 5.8 mph - N/A   Clear
12:55 AM 46.6 °F - 26.2 °F 45% 29.89 in 10.0 mi NW 5.8 mph - N/A   Clear
1:39 AM 48.2 °F - 30.2 °F 50% 29.87 in 10.0 mi NW 21.9 mph 28.8 mph N/A   Scattered Clouds
1:59 AM 48.2 °F - 30.2 °F 50% 29.89 in 10.0 mi NW 16.1 mph 26.5 mph N/A   Scattered Clouds
2:19 AM 48.2 °F - 30.2 °F 50% 29.89 in 10.0 mi NW 18.4 mph 24.2 mph N/A   Clear
2:39 AM 46.4 °F 38.7 °F 30.2 °F 53% 29.89 in 10.0 mi NW 20.7 mph 26.5 mph N/A   Clear
2:59 AM 46.4 °F 39.0 °F 30.2 °F 53% 29.90 in 10.0 mi NW 19.6 mph 25.3 mph N/A   Clear
3:19 AM 46.4 °F 39.5 °F 30.2 °F 53% 29.91 in 10.0 mi NW 17.3 mph 23.0 mph N/A   Clear
3:39 AM 44.6 °F 38.4 °F 30.2 °F 57% 29.92 in 10.0 mi NW 12.7 mph - N/A   Clear
4:00 AM 44.6 °F 36.9 °F 30.2 °F 57% 29.91 in 10.0 mi NW 18.4 mph 24.2 mph N/A   Clear
4:20 AM 44.6 °F 38.1 °F 30.2 °F 57% 29.92 in 10.0 mi NNW 13.8 mph 23.0 mph N/A   Clear
4:40 AM 44.6 °F 38.4 °F 30.2 °F 57% 29.93 in 10.0 mi NW 12.7 mph - N/A   Clear
5:00 AM 42.8 °F 35.4 °F 30.2 °F 61% 29.94 in 10.0 mi North 15.0 mph 19.6 mph N/A   Clear
5:19 AM 42.8 °F 35.8 °F 30.2 °F 61% 29.94 in 10.0 mi North 13.8 mph - N/A   Clear
5:39 AM 41.0 °F 33.5 °F 32.0 °F 70% 29.94 in 10.0 mi North 13.8 mph 21.9 mph N/A   Clear
6:00 AM 41.0 °F 33.5 °F 33.8 °F 76% 29.95 in 10.0 mi NNE 13.8 mph - N/A   Clear
6:20 AM 39.2 °F 30.5 °F 33.8 °F 81% 29.95 in 10.0 mi NNE 16.1 mph - N/A   Clear
6:40 AM 37.4 °F 29.3 °F 32.0 °F 81% 29.97 in 10.0 mi NNE 12.7 mph - N/A   Clear
7:00 AM 37.4 °F 30.8 °F 28.4 °F 70% 29.98 in 10.0 mi NE 9.2 mph - N/A   Scattered Clouds
7:20 AM 37.4 °F 30.3 °F 30.2 °F 75% 29.99 in 10.0 mi NE 10.4 mph - N/A   Mostly Cloudy
7:35 AM 37.0 °F 30.4 °F 30.0 °F 76% 30.00 in 10.0 mi NE 9.2 mph - N/A   Mostly Cloudy
7:55 AM 36.0 °F 31.1 °F 30.0 °F 79% 30.01 in 10.0 mi NNE 5.8 mph - N/A   Scattered Clouds
8:15 AM 34.7 °F 30.6 °F 28.9 °F 79% 30.02 in 10.0 mi NE 4.6 mph - N/A   Scattered Clouds
8:35 AM 34.0 °F 27.2 °F 28.0 °F 79% 30.02 in 10.0 mi NE 8.1 mph - N/A   Clear
8:55 AM 33.8 °F 29.6 °F 27.0 °F 76% 30.02 in 10.0 mi NE 4.6 mph - N/A   Clear
9:15 AM 35.2 °F 29.5 °F 27.0 °F 72% 30.03 in 10.0 mi NE 6.9 mph - N/A   Clear
9:35 AM 35.6 °F 29.9 °F 25.5 °F 67% 30.03 in 10.0 mi NE 6.9 mph - N/A   Clear
9:55 AM 36.1 °F 28.7 °F 25.2 °F 64% 30.03 in 10.0 mi NE 10.4 mph - N/A   Clear
10:15 AM 36.7 °F 28.9 °F 25.3 °F 64% 30.03 in 10.0 mi NE 11.5 mph - N/A   Scattered Clouds
10:35 AM 36.1 °F 29.9 °F 24.8 °F 63% 30.04 in 10.0 mi ENE 8.1 mph - N/A   Mostly Cloudy
10:55 AM 37.6 °F 31.0 °F 24.8 °F 60% 30.04 in 10.0 mi ENE 9.2 mph - N/A   Mostly Cloudy
11:15 AM 36.5 °F 29.2 °F 23.7 °F 60% 30.03 in 10.0 mi East 10.4 mph - N/A   Scattered Clouds
11:35 AM 37.4 °F 30.8 °F 24.4 °F 60% 30.02 in 10.0 mi East 9.2 mph - N/A   Clear
11:55 AM 38.8 °F 32.6 °F 24.6 °F 57% 30.01 in 10.0 mi East 9.2 mph - N/A   Clear
12:15 PM 39.4 °F 33.2 °F 23.9 °F 54% 30.01 in 10.0 mi ESE 9.2 mph - N/A   Clear
12:35 PM 40.3 °F 34.4 °F 24.3 °F 53% 30.00 in 10.0 mi ESE 9.2 mph - N/A   Clear
12:55 PM 41.0 °F 35.8 °F 23.9 °F 51% 29.98 in 10.0 mi ESE 8.1 mph - N/A   Clear
1:15 PM 42.6 °F 36.8 °F 23.4 °F 47% 29.98 in 10.0 mi SSE 10.4 mph - N/A   Clear
1:35 PM 42.8 °F 38.0 °F 23.2 °F 46% 29.97 in 10.0 mi SSE 8.1 mph - N/A   Clear
1:55 PM 43.3 °F 39.9 °F 22.8 °F 44% 29.97 in 10.0 mi SSE 5.8 mph - N/A   Clear
2:15 PM 43.3 °F 38.1 °F 22.5 °F 44% 29.96 in 10.0 mi South 9.2 mph - N/A   Clear
2:35 PM 42.3 °F 36.3 °F 22.3 °F 45% 29.95 in 10.0 mi SSE 10.4 mph - N/A   Clear
2:55 PM 43.0 °F 37.7 °F 22.1 °F 44% 29.94 in 10.0 mi SSE 9.2 mph - N/A   Scattered Clouds
3:15 PM 41.9 °F 36.9 °F 22.5 °F 46% 29.93 in 10.0 mi South 8.1 mph - N/A   Mostly Cloudy
3:35 PM 41.5 °F 36.4 °F 21.9 °F 46% 29.93 in 10.0 mi South 8.1 mph - N/A   Overcast
3:55 PM 41.0 °F 35.2 °F 21.9 °F 47% 29.93 in 10.0 mi SSE 9.2 mph - N/A   Overcast
4:15 PM 41.4 °F 35.2 °F 21.7 °F 46% 29.93 in 10.0 mi SSE 10.4 mph - N/A   Overcast
4:35 PM 41.2 °F 35.5 °F 21.7 °F 46% 29.93 in 10.0 mi SE 9.2 mph - N/A   Overcast
4:55 PM 40.1 °F 33.6 °F 21.2 °F 47% 29.92 in 10.0 mi SSE 10.4 mph - N/A   Mostly Cloudy
5:15 PM 37.0 °F 31.0 °F 20.8 °F 52% 29.91 in 10.0 mi SSE 8.1 mph - N/A   Scattered Clouds
5:35 PM 34.3 °F 27.0 °F 20.3 °F 57% 29.91 in 10.0 mi SSE 9.2 mph - N/A   Clear
5:55 PM 32.4 °F 25.3 °F 20.1 °F 61% 29.91 in 10.0 mi SE 8.1 mph - N/A   Clear
6:15 PM 31.6 °F 23.1 °F 19.9 °F 62% 29.90 in 10.0 mi South 10.4 mph - N/A   Clear
6:35 PM 30.4 °F 22.2 °F 19.4 °F 64% 29.91 in 10.0 mi SSE 9.2 mph - N/A   Clear
6:55 PM 30.4 °F 21.5 °F 19.8 °F 65% 29.90 in 10.0 mi South 10.4 mph - N/A   Clear
7:15 PM 29.3 °F 20.2 °F 19.6 °F 67% 29.90 in 10.0 mi South 10.4 mph - N/A   Clear
7:35 PM 28.4 °F 19.1 °F 19.6 °F 70% 29.90 in 10.0 mi South 10.4 mph - N/A   Clear
7:55 PM 27.3 °F 17.1 °F 19.4 °F 72% 29.90 in 10.0 mi South 11.5 mph - N/A   Clear
8:35 PM 27.5 °F 18.0 °F 20.3 °F 74% 29.90 in 10.0 mi South 10.4 mph - N/A   Clear
8:55 PM 27.5 °F 18.0 °F 20.3 °F 74% 29.89 in 10.0 mi South 10.4 mph - N/A   Clear
9:15 PM 27.3 °F 18.4 °F 20.3 °F 75% 29.89 in 10.0 mi South 9.2 mph - N/A   Clear
9:35 PM 26.6 °F 18.2 °F 19.9 °F 76% 29.89 in 10.0 mi South 8.1 mph - N/A   Clear
9:55 PM 27.5 °F 19.3 °F 20.3 °F 74% 29.89 in 10.0 mi South 8.1 mph - N/A   Clear
10:15 PM 26.6 °F 17.5 °F 19.6 °F 75% 29.88 in 10.0 mi South 9.2 mph - N/A   Clear
10:35 PM 28.6 °F 19.3 °F 20.1 °F 71% 29.88 in 10.0 mi South 10.4 mph - N/A   Clear
10:55 PM 30.2 °F 21.9 °F 19.6 °F 65% 29.89 in 10.0 mi South 9.2 mph - N/A   Clear
11:15 PM 29.3 °F 20.8 °F 19.0 °F 66% 29.88 in 10.0 mi South 9.2 mph - N/A   Clear
11:35 PM 29.5 °F 20.4 °F 18.5 °F 64% 29.88 in 10.0 mi South 10.4 mph - N/A   Clear
11:55 PM 29.5 °F 21.1 °F 18.1 °F 63% 29.87 in 10.0 mi South 9.2 mph - N/A   Clear